Weather History for Aswan, Egypt

Change the Weather History Date:

Saturday, October 1, 2011

  Actual Average Record
Temperature  
Mean Temperature 88 °F -  
Max Temperature 100 °F 93 °F 113 °F (2002)
Min Temperature 77 °F 71 °F 68 °F (2000)
Cooling Degree Days 24    
Growing Degree Days 38 (Base 50)    
Moisture  
Dew Point 49 °F    
Average Humidity 25    
Maximum Humidity 34    
Minimum Humidity 10    
Precipitation  
Precipitation 0.00 in 0.00 in - ()
Sea Level Pressure  
Sea Level Pressure 29.91 in    
Wind  
Wind Speed 6 mph ()    
Max Wind Speed 12 mph    
Max Gust Speed -    
Visibility 6.0 miles    
Events      
Averages and records for this station are not official NWS values.
T = Trace of Precipitation, MM = Missing Value Source: Averaged Metar Reports

Daily Weather History Graph

Daily Weather History Graph

Search for Another Location

Airport:

Trip Planner

Search our weather history database for the weather conditions in past years. The results will help you decide how hot, cold, wet, or windy it might be!

Date:

Astronomy

Oct. 01, 2011 Rise Set
Actual Time 5:40 AM EET 5:36 PM EET
Civil Twilight 5:17 AM EET 5:58 PM EET
Nautical Twilight 4:51 AM EET 6:25 PM EET
Astronomical Twilight 4:25 AM EET 6:51 PM EET
Moon 9:48 AM EET (10/1) 8:50 PM EET (10/1)
Length of Visible Light 12h 41m
Length of Day
11h 56m
Waxing Crescent, 21% of the Moon is Illuminated
Oct 1
Waxing Crescent
Oct 4
First Quarter
Oct 12
Full
Oct 20
Last Quarter
Oct 26
New

Hourly Weather History & Observations

Time (EET) Temp. Dew Point Humidity Pressure Visibility Wind Dir Wind Speed Gust Speed Precip Events Conditions
12:00 AM 84.2 °F 50.0 °F 30% 29.92 in - NNW 8.1 mph - N/A   Clear
1:00 AM 82.4 °F 50.0 °F 32% 29.92 in - North 8.1 mph - N/A   Clear
2:00 AM 80 °F 49 °F 23% 29.90 in 6 mi Calm Calm - -  
2:00 AM 80.6 °F 48.2 °F 32% 29.92 in - Calm Calm - N/A   Clear
3:00 AM 78.8 °F 48.2 °F 34% 29.92 in - Calm Calm - N/A   Clear
4:00 AM 78.8 °F 46.4 °F 32% 29.92 in - North 4.6 mph - N/A   Clear
5:00 AM 78.8 °F 48.2 °F 34% 29.92 in - North 8.1 mph - N/A   Clear
7:00 AM 80.6 °F 48.2 °F 32% 29.92 in - North 5.8 mph - N/A   Clear
8:00 AM 83 °F 50 °F 22% 29.93 in 6 mi North 8.1 mph - -  
8:00 AM 84.2 °F 50.0 °F 30% 29.95 in - North 8.1 mph - N/A   Clear
9:00 AM 87.8 °F 51.8 °F 29% 29.98 in - NNE 9.2 mph - N/A   Clear
10:00 AM 93.2 °F 51.8 °F 24% 29.95 in - North 8.1 mph - N/A   Clear
11:00 AM 95.0 °F 51.8 °F 23% 29.95 in - NNE 6.9 mph - N/A   Clear
12:00 PM 98.6 °F 50.0 °F 19% 29.92 in - North 8.1 mph - N/A   Clear
1:00 PM 98.6 °F 48.2 °F 18% 29.89 in - NNE 9.2 mph - N/A   Clear
2:00 PM 100 °F 48 °F 10% 29.82 in 6 mi North 11.5 mph - -  
2:00 PM 100.4 °F 48.2 °F 17% 29.86 in - North 11.5 mph - N/A   Clear
5:00 PM 98.6 °F 48.2 °F 18% 29.86 in - North 10.4 mph - N/A   Clear
7:00 PM 93.2 °F 50.0 °F 23% 29.89 in - North 9.2 mph - N/A   Clear
8:00 PM 91 °F 48 °F 14% 29.87 in 6 mi North 4.6 mph - -  
8:00 PM 91.4 °F 48.2 °F 23% 29.89 in - North 4.6 mph - N/A   Clear
9:00 PM 89.6 °F 48.2 °F 24% 29.92 in - North 5.8 mph - N/A   Clear
10:00 PM 87.8 °F 48.2 °F 25% 29.92 in - North 5.8 mph - N/A   Clear
11:00 PM 84.2 °F 46.4 °F 27% 29.92 in - North 6.9 mph - N/A   Clear